Uzur, Russia
Current Conditions -  °F | °C
As of 12:30 PM on Thursday 18 Dec 2014 (Local Time) from UNKL Reporting Station
Overcast Overcast  
Wind Chill:   Ceiling: 8300
Heat Index: 18°   Visibility: 6mi
Dew Point: 10°   Wind: 7mph
Humidity: 73%   Direction: 250°WSW
Pressure: 30.5"   Gusts: NA
Location:  55.3°N, 89.82°E
Report Text: UNKL 180530Z 25003MPS 9999 SCT033CB OVC083 M08/M12 Q1033 NOSIGRMK QFE749 29////50
Loading
Personal Weather Stations






























Interactive Weather Map New forecast layout! Learn more

10-Day Weather Forecast

Advertisements
Track Severe Weather on mobile